Location: Marcé
(47.5801°N, 0.3280°W)
Time: 18:35:06
(UTC+02:00)

Courier 1B - Visible Passes

Search period start: 27 May 2022 00:00
Search period end: 06 June 2022 00:00
Orbit: 962 x 1209 km, 28.3° (Epoch: 26 May)

Date Brightness Start Highest point End Pass type
(mag) Time Alt. Az. Time Alt. Az. Time Alt. Az.
27 May 9.4 23:48:38 10° SSW 23:50:41 11° SSW 23:51:16 11° S visible
28 May 9.4 22:54:00 10° SW 22:57:14 13° SSW 23:00:23 10° SSE visible
30 May 9.6 23:01:32 10° SSW 23:02:54 11° SSW 23:04:16 10° S visible
